TimeMST,TemperatureF,Dew PointF,Humidity,Sea Level PressureIn,VisibilityMPH,Wind Direction,Wind SpeedMPH,Gust SpeedMPH,PrecipitationIn,Events,Conditions,WindDirDegrees,DateUTC
12:53 AM,6.1,1.9,83,29.91,10.0,Variable,4.6,-,N/A,,Clear,0,2012-02-15 07:53:00
1:53 AM,7.0,3.9,87,29.92,10.0,South,3.5,-,N/A,,Clear,180,2012-02-15 08:53:00
2:53 AM,7.0,3.0,84,29.92,10.0,West,3.5,-,N/A,,Clear,260,2012-02-15 09:53:00
3:53 AM,1.0,-2.9,83,29.97,10.0,NNW,4.6,-,N/A,,Clear,340,2012-02-15 10:53:00
4:53 AM,1.9,-0.9,88,29.98,10.0,SSE,9.2,-,N/A,,Clear,160,2012-02-15 11:53:00
5:53 AM,-0.0,-2.0,91,30.03,5.0,NW,5.8,-,N/A,,Clear,310,2012-02-15 12:53:00
6:53 AM,-0.0,-2.9,88,30.06,7.0,SSE,5.8,-,N/A,,Clear,160,2012-02-15 13:53:00
7:53 AM,1.0,-2.0,87,30.10,10.0,Calm,Calm,-,N/A,,Clear,0,2012-02-15 14:53:00
8:53 AM,9.0,6.1,88,30.08,10.0,SE,5.8,-,N/A,,Clear,130,2012-02-15 15:53:00
9:53 AM,12.0,8.1,84,30.07,10.0,SSE,5.8,-,N/A,,Partly Cloudy,150,2012-02-15 16:53:00
10:53 AM,12.9,9.0,84,30.13,10.0,SSW,3.5,-,N/A,,Clear,200,2012-02-15 17:53:00
11:53 AM,18.0,14.0,84,30.09,10.0,Variable,5.8,-,N/A,,Clear,0,2012-02-15 18:53:00
12:53 PM,21.9,14.0,72,30.06,10.0,North,9.2,-,N/A,,Clear,350,2012-02-15 19:53:00
1:53 PM,21.0,12.9,71,30.06,10.0,NNE,10.4,-,N/A,,Clear,30,2012-02-15 20:53:00
2:53 PM,21.0,14.0,74,30.08,10.0,NNE,10.4,-,N/A,,Scattered Clouds,30,2012-02-15 21:53:00
3:53 PM,19.0,12.9,77,30.14,10.0,NNE,8.1,-,0.00,,Overcast,20,2012-02-15 22:53:00
4:53 PM,19.0,12.0,74,30.16,10.0,NE,4.6,-,N/A,,Overcast,50,2012-02-15 23:53:00
5:53 PM,12.9,9.0,84,30.24,10.0,Calm,Calm,-,N/A,,Partly Cloudy,0,2012-02-16 00:53:00
6:53 PM,12.0,10.0,92,30.27,10.0,WNW,4.6,-,N/A,,Partly Cloudy,290,2012-02-16 01:53:00
7:53 PM,10.0,8.1,92,30.29,10.0,West,4.6,-,N/A,,Overcast,260,2012-02-16 02:53:00
8:11 PM,8.6,6.8,92,30.02,10.0,WSW,5.8,-,N/A,,Overcast,240,2012-02-16 03:11:00
8:53 PM,12.0,9.0,88,30.25,10.0,Calm,Calm,-,N/A,,Overcast,0,2012-02-16 03:53:00
9:21 PM,12.2,10.4,92,30.03,10.0,WSW,3.5,-,N/A,,Overcast,250,2012-02-16 04:21:00
9:53 PM,10.0,7.0,87,30.27,10.0,South,8.1,-,N/A,,Overcast,180,2012-02-16 04:53:00
10:53 PM,12.9,10.9,92,30.25,10.0,SSW,4.6,-,N/A,,Overcast,210,2012-02-16 05:53:00
11:53 PM,12.9,10.0,88,30.22,10.0,South,5.8,-,N/A,,Overcast,190,2012-02-16 06:53:00